Dauntless Aviation
Airports Europe Czech Republic
LKPO
PRV

Prerov

Prerov, CZECH REPUBLIC

Airport Info
Suggest Updated Information for this Airport

Location

Latitude / Longitude: 49°25'32"N / 17°24'16"E
  49°25.548'N / 17°24.282'E
  49.4258 / 17.4047

Nearby radio navigation aids

CK PREROV NDB. 63.6° 2.8nm from CK to field.

Runway Information

Runway 06 /24

Dimensions: 8202 x 196 ft.
Surface: ASP
 
Runway 06
Runway 24
Latitude: 49.421419 49.430439
Longitude: 17.389275 17.420478
Elevation: 663 ft. 663 ft.
Runway true heading: 64.6 244.6
 

Instrument Procedures

  Aerodrome Chart

IAPs (Instrument Approach Procedures)

  ILS/DME Rwy 06
  NDB/DME (GPS) or PAR Rwy 06
  NDB (GPS) or PAR Rwy 06
  POLOM 3A

Departure Procedures

  Instrument Departure Chart HLV 1A - 2Z
  Instrument Departure Chart LUTIM 2A - 2Z
  Instrument Departure Chart MORKO 2Z
  Instrument Departure Chart POLOM 3A
Satellite photo at:
Airport distance calculator
From:
Weather Reports

METAR

LKMT
31.3nm NE
LKMT 302030Z 05001KT CAVOK 15/08 Q1025 NOSIG
LKTB
33.3nm SW
LKTB 302030Z 06005KT CAVOK 17/08 Q1025 NOSIG

TAF

LKMT
31.3nm NE
TAF LKMT 301700Z 3018/3124 02008KT CAVOK BECMG 3018/3020 35004KT TEMPO 3102/3106 3000 MIFG NSC BECMG 3108/3110 05008KT BECMG 3118/3120 VRB02KT
LKTB
33.3nm SW
TAF LKTB 301700Z 3018/3124 01008KT CAVOK BECMG 3018/3020 34004KT BECMG 3108/3110 08010KT BECMG 3118/3120 04004KT
Safelog

 

Dauntless Aviation

© 2007-2016 Dauntless Aviation, all rights reserved
Information provided via PilotNav comes from a variety of official and unofficial data sources. As errors are possible, do not use PilotNav for primary flight planning purposes. Verify any information that you receive via PilotNav with current and canonical charts and other official documents. The material in this database is subject to database copyrights held by Dauntless Aviation and may not be copied without the express permission of Dauntless Aviation - licenses for use of part of all of this data are available for purchase; enquire via the Dauntless Aviation helpdesk. A number of mechanisms and markers exist in the database to protect against and identify infringement / copyright. Automated queries against this website are stictly prohibited, and all activity is logged and analyzed.